Dewpoint
28 28 28 27 27 28 28 28 27 27 28 29 30 30 31 32 32 32 32 31 30 29 29 28 28 29 30 32 33 34 35 35 36 37 37 37 37 37 37 37 37 37 37 36 36 36 36 36 36 36 36 35 35 36 36 36 36 37 37 36 36 36 36 36 36 36 37 37 37 37 37 38 38 38 38 39 39 39 39 39 40 40 40 40 40 41
28 29 29 27 26 27 28 28 28 27 28 29 30 31 31 31 31 31 30 30 30 29 28 28 28 28 29 30 32 34 34 35 36 36 37 37 37 37 37 37 37 37 37 36 36 36 36 36 35 35 35 35 34 35 35 35 36 36 35 35 35 35 35 35 35 35 36 36 37 37 37 38 38 38 38 38 38 38 37 37 37 38 38 38 39 40
27 28 28 27 27 27 28 28 28 28 29 29 30 31 31 31 30 30 30 30 29 29 28 28 28 28 28 30 32 33 34 34 35 36 37 37 37 37 37 37 37 37 37 36 36 36 36 35 35 35 34 34 34 34 34 35 35 35 34 34 34 34 34 34 34 35 35 36 36 37 37 38 38 38 38 38 38 37 37 37 37 37 38 38 38 38
27 27 28 28 28 28 28 29 29 29 30 30 31 32 32 31 31 30 30 29 29 28 28 28 28 28 28 29 30 32 33 34 35 36 36 37 37 37 37 37 37 37 37 36 36 36 35 35 34 34 34 34 34 34 34 34 34 34 34 34 33 33 33 34 34 34 35 35 36 37 37 37 38 38 38 38 38 38 38 38 38 39 39 39 39 39
28 28 28 28 28 29 29 30 30 30 31 32 32 32 31 31 31 30 30 30 29 28 28 28 28 28 28 28 29 31 33 34 35 35 36 36 36 36 36 36 37 37 36 36 36 35 35 34 34 34 34 34 34 34 34 34 34 33 33 33 33 33 33 33 34 34 35 35 36 37 37 37 37 38 38 39 39 39 40 40 41 41 41 41 41 41
28 28 29 29 29 30 30 31 31 31 32 32 32 31 31 31 31 30 30 29 29 29 29 29 28 28 27 27 29 31 32 33 34 35 35 36 36 36 36 36 37 37 36 36 35 35 34 34 34 34 34 34 34 34 34 34 33 33 33 33 33 32 33 33 34 34 35 36 36 37 37 37 38 38 39 39 40 40 41 41 41 41 41 41 41 41
29 30 31 30 31 31 31 31 32 32 32 32 31 31 31 31 31 30 30 30 29 29 29 29 28 28 27 27 28 30 31 32 33 34 34 35 35 36 36 36 37 36 36 35 34 34 33 33 33 33 34 34 34 34 33 33 33 33 32 32 32 32 33 33 34 35 35 36 37 37 37 38 38 38 39 39 40 40 39 39 39 39 39 39 39 40
30 30 31 31 31 31 31 31 32 32 32 31 31 30 30 30 30 30 31 30 30 29 28 28 28 27 26 26 27 28 28 29 30 31 32 33 34 35 36 36 36 36 35 34 33 33 33 33 33 33 33 33 33 33 33 33 32 32 32 32 32 32 33 33 34 35 36 36 37 37 37 38 38 38 38 38 38 37 37 37 37 37 37 38 38 39
30 31 31 30 30 30 29 30 31 32 32 32 31 30 30 29 30 30 31 31 30 29 28 27 27 26 26 26 27 27 28 28 29 29 30 30 32 33 35 36 35 35 34 33 33 32 32 33 33 33 33 33 33 33 32 32 32 32 32 32 32 32 33 34 34 35 36 36 37 37 37 37 37 37 37 37 37 37 37 37 37 37 38 38 39 40
31 30 30 30 30 30 29 29 30 31 32 32 31 31 30 29 29 30 30 30 30 29 28 27 27 26 27 27 27 27 28 29 30 31 32 32 33 34 35 34 33 32 32 32 32 32 32 32 32 32 33 32 32 32 32 32 31 31 31 32 32 32 33 34 35 35 36 36 36 37 37 37 37 37 37 36 37 37 37 37 38 38 38 39 39 40
31 31 30 30 31 31 31 30 31 32 33 32 31 31 30 30 30 30 30 30 29 29 28 28 28 27 27 27 27 27 28 28 29 31 33 34 34 34 33 32 32 31 31 31 31 31 31 32 32 32 32 32 32 31 31 30 30 31 31 31 32 32 33 34 35 35 36 36 36 36 36 36 36 36 36 36 37 37 38 38 38 38 38 39 39 39
31 31 31 31 31 31 31 31 32 33 33 33 32 32 31 31 30 30 30 29 29 28 28 28 28 28 28 27 27 27 28 28 28 30 31 32 31 30 29 29 29 29 29 29 29 30 30 31 31 31 31 30 30 30 29 29 30 30 31 32 32 33 33 34 35 35 35 35 36 36 36 36 36 36 36 37 37 38 38 38 38 38 38 38 39 39
32 32 32 32 32 32 32 32 32 32 32 32 31 31 30 30 30 29 29 29 29 29 28 28 28 29 29 28 28 28 28 28 29 30 29 28 27 27 27 26 25 25 24 25 25 26 28 29 30 30 29 29 29 29 29 29 30 30 31 32 32 33 33 34 35 35 35 35 35 35 35 36 36 36 37 37 37 38 38 38 38 38 38 39 39 39
32 33 33 32 32 32 32 32 31 30 30 30 30 31 31 31 31 30 30 30 30 30 29 29 28 29 29 29 29 29 29 29 28 28 27 27 28 28 26 25 24 23 23 23 23 24 26 27 27 27 28 28 28 28 28 29 30 31 31 32 32 33 33 34 34 34 34 34 34 34 35 35 36 36 37 37 37 37 37 37 37 37 38 39 39 39
33 33 32 31 31 31 31 31 30 30 29 30 31 31 32 31 31 31 31 30 30 30 30 29 29 29 28 28 29 29 29 28 27 27 27 28 28 28 26 24 23 23 22 22 22 23 26 25 25 24 24 25 26 27 28 28 30 31 31 32 32 33 33 33 33 33 33 33 33 33 34 35 35 36 37 37 37 37 37 37 37 37 38 38 39 39
35 34 32 32 31 30 31 31 31 30 30 31 32 32 32 32 32 31 31 31 30 30 30 29 28 28 27 28 29 29 28 28 28 28 28 27 27 27 25 23 22 21 22 22 22 23 24 23 23 23 23 24 26 28 28 29 30 31 32 32 32 32 32 32 32 32 32 32 33 33 34 34 35 36 36 36 36 36 36 36 37 37 38 38 38 39
36 35 33 32 31 30 31 31 31 32 32 32 32 33 32 32 32 32 31 31 31 30 29 28 27 26 25 26 28 29 29 29 28 28 27 26 25 25 24 23 22 21 22 22 22 22 22 22 22 22 23 25 27 28 28 29 30 31 32 32 32 32 32 32 31 32 32 32 32 33 33 34 35 35 35 35 36 36 36 36 37 37 37 38 38 38
35 34 33 32 31 31 31 31 31 32 32 32 33 33 33 33 33 32 32 31 30 29 29 28 28 27 25 24 26 29 32 29 28 27 26 24 23 23 24 24 23 22 22 22 22 22 21 22 22 23 23 26 28 28 29 30 30 31 31 31 31 31 31 31 31 31 32 32 32 33 33 33 34 34 35 35 35 35 36 36 37 37 37 38 38 38
35 35 34 33 32 32 32 32 33 33 32 32 32 32 32 33 32 32 32 31 30 30 29 28 28 27 27 26 28 30 31 30 28 27 25 23 22 22 23 23 23 22 21 21 21 21 21 23 24 26 26 27 28 28 29 30 30 31 31 30 30 30 30 30 30 31 31 32 32 32 32 33 33 34 34 34 35 35 35 36 36 37 37 37 37 37
35 35 34 33 32 32 32 32 32 32 32 32 33 33 33 32 32 32 32 31 31 30 30 29 28 28 28 28 29 31 31 30 28 26 24 22 21 21 22 22 21 21 20 20 20 21 20 22 23 25 26 27 28 28 29 30 30 30 30 30 30 29 29 30 30 30 31 31 32 32 32 32 33 33 34 34 34 35 35 36 36 36 37 37 37 37
34 34 34 34 33 32 32 32 32 32 33 34 34 34 33 33 32 32 32 31 31 30 30 30 29 29 29 29 30 31 30 29 28 25 23 22 21 21 21 21 20 19 19 19 19 20 20 21 21 22 24 26 28 28 29 29 29 29 29 29 29 29 29 29 30 30 30 31 31 32 32 32 33 33 33 34 34 35 35 36 36 36 36 37 37 37
34 34 34 34 34 33 32 32 33 34 35 36 35 33 32 32 32 31 31 31 31 31 30 30 31 32 31 31 31 31 30 28 27 25 23 22 21 20 20 20 19 19 18 19 19 19 20 21 21 22 25 27 28 28 28 29 29 29 29 29 29 29 29 29 29 29 30 30 31 31 32 32 32 33 33 34 34 35 35 35 36 36 36 36 36 36
35 34 34 35 34 34 33 34 34 35 35 35 35 34 34 33 33 32 32 33 33 33 33 34 33 32 30 30 29 29 28 28 26 25 24 22 20 19 19 19 19 19 18 19 19 19 20 20 21 22 25 27 28 28 28 28 28 28 28 28 28 28 29 29 29 29 29 30 30 31 31 32 32 33 33 34 34 35 35 35 35 36 36 36 36 36
35 35 35 35 35 36 35 34 34 35 35 35 35 35 35 35 35 35 36 36 35 33 32 30 29 28 28 28 27 27 26 26 26 25 23 21 20 19 19 19 19 19 19 19 19 19 20 20 21 22 23 26 27 27 27 27 27 27 28 28 28 28 28 28 28 28 29 29 30 31 31 32 32 32 33 33 34 34 35 35 35 35 35 36 36 36
36 35 35 35 36 37 36 36 36 36 36 36 36 36 36 36 36 36 36 34 32 30 29 28 28 27 26 26 25 24 24 24 25 24 23 21 20 19 20 20 19 19 19 19 19 19 19 20 21 21 22 23 25 26 26 26 26 27 27 28 28 28 28 28 28 28 28 29 30 30 31 32 32 32 33 33 34 34 34 34 34 35 35 35 36 36
37 37 37 37 38 39 39 39 39 39 39 40 39 39 38 37 37 35 33 31 30 29 28 28 28 27 25 24 23 23 23 23 24 24 23 21 20 19 20 20 20 19 19 19 19 20 20 20 20 20 20 21 23 24 25 25 26 26 27 27 27 27 27 27 27 28 28 29 29 30 31 32 32 32 33 33 33 33 34 34 34 34 35 35 35 35
38 38 38 39 40 40 41 41 41 41 41 41 41 40 40 38 36 33 32 30 29 29 28 28 27 26 25 24 23 23 23 24 24 23 23 22 21 20 20 20 20 20 19 19 20 20 21 20 20 19 19 19 20 22 24 25 25 26 26 26 26 26 26 26 27 27 28 28 29 30 31 31 32 32 32 33 33 33 33 34 34 34 35 35 35 34
38 38 38 39 40 40 40 40 40 40 40 40 39 39 39 37 35 33 32 30 29 28 28 28 27 26 25 24 24 23 23 23 23 23 23 23 22 20 20 20 20 20 19 19 20 21 22 20 19 18 18 18 19 20 23 24 24 25 25 25 25 25 25 25 26 27 28 28 29 30 30 31 32 32 32 32 33 33 33 34 34 34 35 34 33 33
37 37 37 38 38 39 39 39 39 39 39 39 39 39 38 37 35 34 32 30 28 28 28 28 27 26 25 24 24 23 23 23 24 24 24 23 22 20 21 21 20 20 20 19 20 20 19 19 18 18 17 19 19 19 20 22 23 23 23 24 24 24 24 25 25 26 27 28 28 29 30 31 31 32 32 32 32 33 33 33 34 34 34 33 33 32
37 37 37 37 37 37 37 37 37 37 37 38 38 38 38 37 36 35 33 30 29 28 28 27 27 26 25 24 23 23 22 22 23 24 24 23 21 21 21 21 20 20 20 20 19 18 18 18 18 18 18 19 19 18 18 19 19 20 20 21 22 22 23 24 25 26 27 27 28 28 29 30 31 31 32 32 32 32 33 33 33 33 33 33 33 32
37 37 37 37 37 37 36 35 35 35 36 36 37 37 37 36 35 34 33 30 29 28 28 27 27 26 25 23 22 21 20 21 23 25 24 23 22 21 21 21 20 20 21 21 19 18 16 17 17 18 18 18 17 17 18 18 18 18 18 18 19 20 23 23 24 25 26 27 27 28 29 29 30 31 31 32 32 32 32 33 33 33 32 33 33 32
37 37 36 36 36 35 34 34 33 33 32 33 33 34 35 34 34 33 32 31 30 29 28 27 26 26 25 24 23 21 20 22 24 26 26 24 23 22 22 21 21 21 21 22 21 19 17 16 16 17 18 17 17 17 18 18 17 17 17 17 17 19 21 23 23 23 24 25 27 28 28 29 29 30 30 31 32 32 32 32 32 32 32 32 32 32
35 35 35 35 34 33 33 32 32 31 31 31 31 32 32 33 33 32 32 31 30 29 28 27 26 25 25 25 24 23 23 23 24 26 27 25 23 23 22 22 21 21 21 21 20 19 18 17 16 16 16 17 17 17 17 17 17 17 16 16 16 17 20 21 21 21 23 24 25 26 27 28 28 29 30 31 31 32 32 32 32 32 32 32 32 31
33 33 33 33 32 32 31 30 30 30 30 30 30 31 31 32 32 32 31 30 30 29 28 27 26 26 25 25 24 24 24 24 26 28 28 26 24 23 22 22 21 21 21 20 19 19 18 17 16 16 16 16 17 17 17 17 17 17 17 16 16 17 18 19 19 20 21 22 23 24 25 26 28 28 29 30 31 31 32 32 32 32 32 32 31 31
32 32 31 31 30 30 29 29 29 29 30 30 30 31 31 30 30 30 30 29 29 28 27 27 27 27 26 26 25 24 24 24 26 28 28 27 25 24 23 22 22 22 22 20 19 18 17 17 17 17 16 16 16 16 17 16 17 17 17 17 17 17 17 18 19 19 20 21 21 22 23 24 25 27 28 29 30 31 31 32 32 32 32 32 31 31
30 29 29 29 29 28 28 28 29 29 30 30 30 30 30 28 28 27 27 28 28 28 27 27 27 27 27 27 27 26 26 26 27 28 28 27 26 24 23 23 23 23 22 20 19 18 17 17 17 17 17 16 15 15 16 17 17 17 17 17 17 17 18 19 19 19 20 20 21 22 23 23 25 26 27 28 30 30 31 31 31 31 31 32 32 31
28 28 28 28 28 28 28 28 29 29 29 30 30 30 29 27 26 25 24 24 25 26 27 28 28 28 28 28 28 28 28 27 28 28 28 28 26 25 23 23 24 24 23 21 19 19 18 17 17 17 16 15 15 15 16 17 17 17 16 17 17 18 19 19 20 20 20 20 21 22 23 24 25 26 27 28 29 29 30 30 30 30 31 31 31 31
27 27 28 28 28 28 28 28 28 29 29 30 30 29 28 25 24 23 23 22 22 23 24 25 26 27 28 28 29 29 28 28 28 28 28 28 27 25 24 24 24 24 23 21 20 19 18 17 16 15 15 15 15 16 17 16 16 16 16 17 18 18 19 19 20 20 20 21 22 23 23 24 24 25 26 27 27 27 27 27 28 29 30 30 31 31
26 26 27 27 28 28 28 28 28 29 30 30 29 28 25 23 23 23 22 21 21 21 22 22 23 23 24 24 26 28 29 29 29 28 28 27 26 25 24 24 23 23 23 21 20 19 18 17 16 16 15 15 15 16 16 16 16 16 16 18 18 18 19 19 19 20 20 21 22 23 23 23 23 24 24 25 25 25 25 26 27 28 28 28 29 30
25 26 26 27 28 28 28 28 29 29 28 28 28 27 25 24 23 23 23 22 22 22 21 21 22 22 23 24 25 26 27 27 27 27 26 24 23 23 23 23 23 22 21 20 19 19 18 18 17 17 17 16 16 16 16 16 16 17 18 17 17 17 18 19 19 20 21 21 21 21 22 22 23 23 23 24 24 24 25 25 25 26 27 27 27 28
25 25 25 26 27 28 28 29 29 28 27 27 26 25 25 25 25 24 24 24 24 23 23 23 24 23 23 23 22 22 22 23 24 24 23 22 21 20 22 22 21 21 20 20 19 19 19 18 18 17 17 16 16 16 16 16 17 18 19 17 16 17 18 19 20 20 20 20 21 21 22 23 23 23 23 24 24 24 25 25 25 26 27 28 28 28
25 25 25 26 27 28 28 29 29 28 27 26 26 26 26 25 26 26 27 26 25 23 23 23 24 25 25 25 24 23 22 21 21 22 21 20 19 19 20 21 21 21 20 20 19 19 19 19 18 18 17 16 16 16 15 16 17 18 18 17 17 18 19 19 20 19 20 20 21 22 23 23 23 23 23 23 24 24 25 26 27 28 28 28 28 29
25 25 26 27 27 28 28 29 29 28 27 26 26 25 24 24 25 27 28 26 24 23 22 21 21 22 23 23 23 23 23 23 21 20 20 19 19 18 19 20 20 20 20 19 19 18 18 18 18 17 17 16 16 16 15 16 16 17 17 18 18 17 17 17 19 19 20 20 21 22 23 23 23 23 23 24 24 25 25 27 28 29 29 29 29 29
25 26 26 27 27 28 28 28 28 28 27 26 26 24 23 23 26 27 26 24 22 21 19 18 18 19 20 20 20 21 22 22 22 21 21 23 22 21 21 21 20 20 20 19 18 17 16 17 16 16 17 17 17 16 16 16 16 16 17 18 18 18 17 18 18 19 19 21 22 23 23 23 24 24 24 24 24 25 26 26 27 28 29 30 30 31
26 26 27 27 27 27 27 28 28 27 26 26 25 23 22 23 25 26 24 22 20 19 17 18 19 21 21 20 20 20 19 20 21 22 22 23 25 26 25 23 21 20 20 19 18 17 17 16 16 16 17 17 17 17 16 16 16 16 17 18 18 18 18 19 19 19 19 21 22 23 23 24 24 24 23 23 24 25 25 26 27 28 28 30 30 31
26 27 27 27 27 27 28 28 27 26 25 25 24 23 21 21 22 23 23 21 19 18 18 19 20 21 21 21 20 19 19 19 19 20 21 22 22 22 22 22 22 22 21 20 19 19 18 17 17 17 17 17 17 17 16 16 16 16 16 17 18 18 18 19 19 19 20 21 22 22 23 24 24 23 23 23 24 25 26 27 28 28 29 30 31 31
27 27 27 27 27 28 28 28 26 25 25 24 23 22 20 20 20 21 21 20 19 19 19 19 19 19 20 20 19 19 19 19 19 19 20 21 22 22 22 22 22 22 20 19 19 19 19 19 19 19 18 17 16 16 16 16 16 16 16 17 17 17 17 18 19 20 21 21 22 23 23 23 23 23 23 23 24 25 26 28 28 29 30 31 31 31
26 26 27 27 28 28 28 27 25 25 24 23 22 21 20 21 21 21 19 19 20 20 20 19 19 19 19 18 17 18 19 19 19 19 19 19 21 21 22 20 19 19 19 19 19 19 19 21 21 20 19 17 16 16 16 17 17 17 17 17 17 17 17 18 19 20 21 22 23 23 23 23 23 23 23 23 23 24 26 28 29 30 31 31 31 32
26 26 27 28 28 28 27 25 24 24 24 23 22 21 20 22 23 23 20 19 19 20 19 20 20 19 19 17 17 18 19 19 19 18 18 19 20 20 20 19 18 17 17 18 18 19 19 20 21 21 20 19 17 17 17 17 17 17 17 17 17 17 17 18 19 20 21 22 23 23 24 23 23 24 24 24 24 24 26 27 28 29 30 31 32 32
26 27 27 28 28 28 27 25 24 24 24 23 22 20 19 19 20 20 20 20 19 19 18 19 19 19 18 18 18 19 19 19 18 18 18 19 19 19 19 17 16 16 16 16 16 16 17 18 19 20 22 22 21 20 19 18 17 17 16 17 17 17 18 18 19 20 21 22 23 23 24 24 24 25 25 25 25 25 25 26 27 28 30 31 32 33
26 27 28 28 28 27 26 25 24 24 23 23 22 20 19 19 19 19 19 19 19 18 17 15 16 17 18 19 19 19 19 19 18 18 18 19 19 19 18 17 16 15 15 15 15 15 14 14 14 15 18 21 21 20 18 17 16 16 16 16 17 18 18 19 19 20 22 22 22 23 23 24 24 25 25 25 25 25 25 26 27 28 29 31 32 33